Regional Weather Roundup
Issued by NWS

Home | Current Version | Previous Version | Text Only | Print | Product List | Glossary On
Versions: 1 2 3 4 5 6 7 8 9 10 11 12 13 14 15 16 17 18 19 20 21 22 23 24 25 26 27 28 29 30 31 32 33 34 35 36 37 38 39 40 41 42 43 44 45 46 47 48 49 50
000
ASUS45 KABQ 230510
RWRNM
WEATHER ROUNDUP FOR NEW MEXICO
NATIONAL WEATHER SERVICE ALBUQUERQUE NM
1000 PM MST SAT NOV 22 2014

NOTE: "FAIR" MEANS FEW OR NO CLOUDS BELOW 12,000 FEET AGL WITH NO
       SIGNIFICANT WEATHER OR OBSTRUCTIONS TO VISION.

      THIS PRODUCT IS RELEASED AS TWO VERSIONS.  ONE VERSION NEAR
      THE TOP OF THE HOUR CONTAINING PRELIMINARY DATA FROM ALBUQUERQUE
      AND OTHER STATIONS.  A FINAL VERSION WITH ADDITIONAL DATA IS
      ISSUED ABOUT 10 MINUTES AFTER THE HOUR.

NMZ501-503-504-510>518-230600-
NORTHWEST PLATEAU/NORTHCENTRAL MOUNTAINS

CITY           SKY/WX    TMP DP  RH WIND       PRES   REMARKS
FARMINGTON     MOCLDY    39  26  59 SE3       29.85F
LOS ALAMOS     CLOUDY    41  15  35 E3        29.86F
SANTA FE       PTCLDY    32  14  47 VRB3      29.85F
TAOS           MOCLDY    34  21  60 CALM      29.83F
ANGEL FIRE     FAIR      27  12  53 CALM      29.87F

$$
NMZ402-403-502-505>509-230600-
WESTCENTRAL MOUNTAINS/SOUTHWEST MOUNTAINS

CITY           SKY/WX    TMP DP  RH WIND       PRES   REMARKS
GALLUP         PTCLDY    43  16  33 SW25G32   29.92F
GRANTS         CLEAR     43  12  28 CALM      29.92F
SILVER CITY    CLEAR     45  16  31 S3        30.00R

$$
NMZ407-409-411-412-230600-
SOUTHERN DESERTS

CITY           SKY/WX    TMP DP  RH WIND       PRES   REMARKS
LORDSBURG      FAIR      48  21  34 W14       29.98S
DEMING         CLEAR     52  20  28 W15G23    29.94F
LAS CRUCES     CLEAR     49  17  28 W7        29.92F
HOLLOMAN AFB   PTCLDY    48  19  31 SE6       29.85F
ALAMOGORDO     CLEAR     45  18  33 MISG      29.88S
T OR C         CLEAR     52  17  25 W5        29.87F

$$
NMZ519>523-230600-
CENTRAL VALLEYS/CENTRAL HIGHLANDS

CITY           SKY/WX    TMP DP  RH WIND       PRES   REMARKS
ALBUQUERQUE    MOCLDY    44  14  29 S10       29.86F
DOUBLE EAGLE   MOCLDY    42  13  30 S7        29.85F
MORIARTY ARPT  FAIR      42  15  33 NW7       29.86F
CLINES CORNERS CLEAR     41  15  35 NW21G30   29.81F
BELEN          FAIR      52  17  25 W14G23    29.87F
SOCORRO        FAIR      45  17  32 N7        29.85F

$$
NMZ524>526-539-540-230600-
SOUTHCENTRAL MOUNTAINS

CITY           SKY/WX    TMP DP  RH WIND       PRES   REMARKS
RUIDOSO        CLEAR     48  12  23 W10G22    29.86S

$$
NMZ527>531-230600-
NORTHEAST HIGHLANDS/NORTHEAST PLAINS

CITY           SKY/WX    TMP DP  RH WIND       PRES   REMARKS
LAS VEGAS      CLEAR     45  18  34 NW17G30   29.73R
RATON          PTCLDY    46  17  31 W14       29.68R
CLAYTON        MOCLDY    51  15  23 NW16      29.57F

$$
NMZ532>537-230600-
EASTCENTRAL PLAINS

CITY           SKY/WX    TMP DP  RH WIND       PRES   REMARKS
TUCUMCARI        N/A     57  15  19 W21       29.62F
CANNON AFB     PTCLDY    55  16  21 W15       29.75S
CLOVIS AIRPORT CLEAR     46  18  31 SW15      29.69S

$$
NMZ028-029-538-230600-
SOUTHEAST PLAINS

CITY           SKY/WX    TMP DP  RH WIND       PRES   REMARKS
ROSWELL        CLEAR     47  24  40 SW10      29.76F
CARLSBAD       CLEAR     59  23  25 W20       29.78F
HOBBS          CLEAR     50  25  37 W13       29.80F


$$


USA.gov is the U.S. government's official web portal to all federal, state and local government web resources and services.